Dewpoint
69 69 68 68 68 68 68 68 68 68 68 68 68 68 68 68 68 68 68 68 68 68 68 68 68 68 68 68 67 67 66 66 66 65 65 65 64 64 64 64 64 63 63 64 64 64 63 58 55 56 59 61 62 62 63 64 64 64 65 65 66 66 67 67 67 66 66 66 65 65 64 64 63 62 62 62 62 62 62 62 62 62 62 61 61 60 60 61 61 61 62 62 62 63 63 64 64 64 64 64 64 64 63
69 69 68 68 68 68 68 68 68 68 68 68 68 68 68 68 68 68 69 68 68 68 68 68 68 68 68 68 67 67 66 66 66 65 65 65 64 64 64 64 63 63 63 63 63 63 62 56 54 55 59 61 62 63 64 64 64 64 64 64 64 65 67 67 67 67 66 66 65 64 64 63 62 62 62 62 62 62 62 62 62 61 61 61 61 60 61 61 61 61 61 62 62 62 63 63 64 64 64 64 64 64 63
69 69 68 68 68 68 68 68 68 68 68 67 67 68 68 68 68 68 69 69 68 68 68 68 68 68 68 68 68 67 66 66 65 65 65 64 64 64 64 63 63 63 63 63 63 63 61 58 54 53 58 61 62 63 64 64 64 64 64 64 64 64 66 67 67 67 66 65 65 64 63 62 62 62 62 62 62 62 61 61 61 61 61 61 61 61 61 61 61 61 61 62 62 62 62 63 63 63 64 64 63 63 63
68 68 68 68 68 68 68 68 68 68 67 67 67 67 67 68 68 68 68 68 68 68 68 68 68 68 68 68 67 67 66 66 65 65 65 64 64 64 64 63 63 63 63 63 64 62 58 56 53 52 56 59 61 62 63 64 64 64 64 64 65 65 67 67 66 66 66 65 64 64 63 62 62 62 62 62 62 61 61 61 61 61 61 61 61 61 61 61 61 61 61 61 62 62 62 63 63 63 63 63 63 63 62
68 68 68 68 68 68 68 68 68 68 67 67 67 67 67 67 68 68 68 68 68 68 68 68 68 68 68 68 68 67 67 66 66 65 65 64 64 64 64 63 63 64 64 64 64 62 58 56 52 50 54 58 60 62 63 64 64 64 64 64 65 66 67 66 66 66 65 65 64 64 63 62 62 62 62 61 61 61 61 61 61 61 61 61 61 61 61 61 60 60 61 61 61 61 62 62 62 62 62 62 62 62 62
68 68 68 68 68 68 68 68 68 68 68 68 68 67 67 67 67 67 68 68 68 68 68 68 68 68 68 68 68 67 67 66 66 65 65 64 64 64 64 63 64 64 64 64 64 63 60 55 51 49 52 57 60 61 62 64 64 63 64 64 66 67 67 66 66 66 65 65 64 64 63 62 62 62 62 61 61 61 61 61 61 61 61 61 61 61 61 60 60 60 60 60 61 61 61 61 62 62 62 62 62 61 61
67 68 68 68 68 68 68 68 68 68 68 68 68 67 67 67 67 67 67 67 68 68 68 68 68 68 68 68 67 67 67 66 66 65 65 64 64 64 64 63 63 64 64 64 64 63 60 56 51 49 51 56 59 62 63 64 64 63 64 64 66 68 67 66 66 66 65 65 64 64 63 62 62 62 61 61 61 61 61 60 60 60 61 61 61 61 61 61 61 60 60 60 60 60 61 61 61 61 61 61 61 61 60
67 67 67 68 68 68 68 68 68 68 68 68 68 67 67 67 67 67 67 66 67 67 67 67 67 67 67 67 67 67 66 66 66 65 65 65 64 64 64 63 63 63 64 64 64 63 62 58 53 50 51 57 60 63 64 64 64 64 64 65 66 68 67 66 66 66 65 65 64 64 63 62 62 61 61 61 61 61 60 60 60 60 61 60 60 60 60 60 60 60 60 60 60 60 60 60 60 60 60 60 60 60 60
67 67 67 67 68 68 67 67 67 67 67 68 68 67 67 67 67 67 66 66 66 66 66 66 66 66 66 66 66 66 66 66 65 65 65 64 64 64 63 63 63 63 64 64 64 64 63 59 54 50 51 58 61 64 64 64 64 64 64 65 67 67 68 67 66 66 65 65 64 63 63 62 62 61 61 61 60 60 60 60 60 60 61 60 60 60 60 60 60 60 60 60 60 60 60 61 61 60 60 60 60 60 60
68 67 67 67 67 67 67 67 67 67 67 67 67 67 67 67 67 67 66 66 65 65 65 65 65 65 65 65 65 65 65 65 65 64 64 64 64 63 63 63 63 63 64 64 64 64 63 59 54 50 51 58 62 64 64 64 64 64 64 67 68 68 68 67 66 66 65 64 64 63 63 62 62 61 61 60 60 60 60 60 60 60 61 60 60 60 60 60 60 60 60 60 60 60 61 61 61 61 61 61 61 61 61
67 67 67 67 67 67 67 67 66 66 66 66 67 67 67 67 67 67 66 66 65 65 65 65 64 64 64 64 64 64 64 64 64 64 64 63 63 62 62 62 63 63 63 64 64 63 62 58 53 50 52 58 62 63 64 64 64 64 65 67 68 68 68 67 66 65 65 64 64 63 63 62 62 61 61 60 60 60 60 60 60 60 60 60 60 60 60 60 59 59 59 59 59 60 60 61 61 62 62 61 61 61 62
67 67 67 66 66 66 66 66 66 66 66 66 66 66 67 67 67 67 67 66 66 65 65 64 64 64 63 63 62 62 62 62 62 62 62 61 61 61 60 61 61 62 62 63 63 62 60 55 50 49 52 58 61 62 63 63 63 64 65 67 68 68 68 67 66 65 65 64 64 63 63 62 62 61 61 60 60 59 59 59 60 60 60 60 60 60 60 59 59 59 59 59 59 59 60 61 61 62 62 62 62 62 62
67 67 67 66 66 65 65 65 65 65 66 66 66 66 66 66 67 67 67 66 66 65 65 65 64 64 63 62 61 61 61 60 61 61 60 60 59 59 59 59 60 60 61 62 61 59 56 52 49 48 53 58 60 62 63 63 63 63 65 67 68 68 67 67 66 65 65 64 64 63 62 62 62 61 61 60 59 59 59 59 60 60 60 60 60 60 60 59 59 59 59 59 59 59 59 60 61 61 62 62 61 61 61
68 67 67 67 66 65 65 65 65 65 65 65 65 65 66 66 66 66 67 66 66 66 65 65 64 64 63 62 62 61 60 60 60 59 59 59 58 58 58 58 59 59 60 60 58 55 51 50 48 48 53 58 60 62 64 64 63 64 66 67 67 67 67 66 66 65 64 64 64 63 62 62 61 61 61 60 59 59 59 59 60 60 60 60 60 60 60 59 59 59 59 59 59 59 59 59 60 60 61 61 61 61 61
67 67 67 67 66 66 65 65 65 65 65 65 65 65 65 66 66 66 66 66 66 66 66 65 65 64 64 63 62 62 61 60 59 59 59 59 58 58 58 58 59 59 60 58 54 51 50 48 47 48 53 58 60 62 64 63 63 64 67 67 67 66 66 66 65 65 64 64 64 63 62 62 61 61 61 60 59 59 59 59 59 60 60 60 60 60 60 59 59 59 59 59 59 59 59 59 59 59 59 60 60 60 60
66 66 66 67 67 66 65 65 65 65 65 65 66 66 66 65 66 66 66 67 67 66 66 66 65 65 65 64 64 63 62 60 59 59 59 59 59 59 59 59 60 59 58 54 51 49 49 46 46 49 55 58 60 61 62 62 64 65 67 67 66 66 66 66 65 64 64 64 64 63 62 62 61 61 61 60 60 59 59 59 59 60 60 60 60 60 59 59 59 59 59 59 59 59 59 59 59 59 59 59 59 59 59
64 65 66 67 67 67 66 65 65 65 65 65 66 66 66 66 66 66 66 67 67 67 66 66 66 65 65 65 64 64 62 60 60 60 60 60 60 60 60 61 61 59 54 50 48 48 47 44 45 49 55 57 59 61 61 61 64 66 67 66 66 65 66 65 65 64 64 64 64 63 63 62 61 61 61 60 60 59 59 59 59 59 60 60 60 60 59 59 59 59 59 59 59 59 59 59 59 59 58 58 58 59 59
64 65 67 67 68 67 67 66 65 65 65 65 65 66 66 66 66 66 66 67 67 67 66 66 66 66 66 66 65 64 60 59 59 59 59 59 60 60 60 60 58 55 50 47 47 47 46 43 45 48 54 57 59 60 61 61 64 66 66 65 65 65 65 65 65 65 64 64 64 63 63 62 62 61 61 60 60 59 59 59 59 59 60 60 60 59 59 59 59 59 59 58 59 59 59 59 59 59 58 58 57 58 58
64 66 67 67 68 68 67 67 66 66 65 65 65 65 66 66 66 67 67 67 67 67 67 66 66 66 66 66 64 63 60 60 59 57 56 57 58 59 59 57 54 50 46 46 46 45 44 43 45 48 51 55 58 60 60 62 64 65 65 64 64 64 64 65 65 65 64 64 64 63 63 63 62 61 61 60 60 59 59 59 59 59 59 60 60 59 59 59 59 59 58 58 58 59 59 59 59 59 58 57 57 57 57
64 66 67 67 68 68 68 68 67 67 66 65 65 65 65 66 66 67 68 68 68 67 67 67 66 66 66 64 63 61 61 61 59 58 55 54 54 55 54 52 49 46 44 44 44 43 43 44 45 46 49 54 57 59 59 61 64 65 64 64 64 63 64 64 65 65 65 64 64 64 64 63 62 62 61 60 60 59 59 59 59 59 59 60 60 59 59 59 59 58 58 58 58 59 59 59 59 58 58 57 57 57 57
64 64 65 66 67 67 67 67 66 66 66 66 65 64 64 64 65 66 67 67 67 67 67 67 65 64 63 62 61 61 61 61 60 59 56 53 51 50 48 47 46 44 44 43 42 42 43 45 46 46 48 53 56 59 59 61 64 64 64 63 63 62 63 63 64 64 65 64 64 64 64 64 63 62 61 61 60 59 59 59 59 59 59 59 60 60 59 59 58 58 58 58 58 58 59 59 59 58 57 57 57 57 58
64 64 64 65 66 66 66 65 65 65 65 66 65 63 63 63 64 64 65 64 64 64 65 65 63 62 62 61 61 61 61 60 59 58 56 53 50 47 46 45 44 44 43 42 42 43 44 46 46 46 47 52 55 58 59 62 64 64 63 62 62 61 61 62 62 64 64 64 65 65 66 65 64 63 62 61 60 60 59 59 59 59 59 59 59 59 59 59 58 58 58 57 57 58 59 59 59 58 57 57 57 57 58
64 64 64 64 65 65 65 64 64 64 64 66 65 64 63 63 63 63 63 62 62 62 62 62 62 62 62 61 60 60 60 58 56 55 54 51 49 47 45 44 44 43 43 42 42 43 45 46 46 46 47 51 55 58 60 63 64 64 64 62 61 61 60 61 61 62 63 64 65 66 67 66 65 64 62 61 61 60 59 59 58 58 58 59 59 59 59 59 58 58 58 57 57 58 58 59 59 58 57 57 57 57 58
64 64 64 64 65 65 65 65 65 65 64 65 65 64 64 64 64 63 63 62 62 61 61 61 61 62 61 60 59 59 57 54 53 52 50 49 48 46 45 44 43 42 42 41 42 43 45 46 46 46 46 50 54 57 60 63 64 64 64 63 61 61 60 60 60 61 62 62 64 64 66 67 66 64 63 62 61 60 59 59 58 58 58 58 59 59 59 59 58 58 57 57 57 57 58 59 59 59 58 57 57 57 57
64 64 64 64 64 64 65 65 64 64 64 64 64 64 64 63 63 63 63 62 62 61 61 61 61 60 59 58 57 55 53 50 50 50 48 47 46 46 45 43 42 41 41 41 41 43 45 46 46 46 46 49 53 57 60 62 64 64 64 63 62 61 60 60 60 60 60 61 62 63 64 66 66 65 64 63 62 61 60 59 59 58 58 58 58 59 59 59 59 58 57 57 57 57 58 59 59 58 58 57 57 56 57
62 63 63 63 64 64 64 64 64 64 64 64 64 64 62 61 62 62 63 62 61 60 60 60 60 59 58 57 55 54 52 50 49 48 47 46 46 46 45 44 43 42 41 41 41 43 45 46 46 46 46 48 52 56 59 62 63 64 64 63 63 62 61 60 60 60 60 60 60 61 62 64 66 66 64 64 62 61 60 59 59 59 58 58 58 58 59 59 59 58 58 57 57 57 57 58 58 58 58 57 56 56 56
60 60 60 61 62 62 62 62 62 62 63 63 62 62 60 60 60 61 61 61 60 59 59 59 58 58 57 57 56 55 55 54 52 50 49 47 46 46 45 45 45 44 43 42 42 43 44 45 45 46 46 47 51 55 58 61 63 63 63 64 63 62 61 60 60 60 59 59 59 60 61 63 64 65 65 64 63 62 61 60 59 59 59 58 58 58 58 59 59 58 58 57 57 56 57 58 58 58 58 57 56 56 56
58 58 58 58 59 59 60 59 59 60 61 61 61 60 60 59 60 60 60 60 60 59 59 59 58 58 58 58 57 57 56 55 55 54 53 51 49 48 47 47 46 46 45 44 44 43 43 44 44 44 45 46 50 54 56 59 62 63 63 63 63 63 62 61 60 59 59 59 59 59 59 61 64 65 65 64 64 63 62 61 60 59 59 59 58 58 58 59 59 59 58 57 57 56 56 57 58 58 58 57 56 56 55
58 58 58 58 58 58 58 58 58 59 59 59 60 60 60 59 60 60 60 60 60 60 59 59 59 59 59 59 59 58 57 57 56 55 55 55 54 52 50 50 49 48 47 46 45 44 43 43 43 43 43 45 48 51 54 57 60 62 62 62 63 63 63 62 61 60 59 59 59 59 59 60 62 64 65 65 64 64 63 62 61 60 59 59 59 59 58 59 59 59 59 58 57 57 56 57 57 58 58 57 57 56 55
59 59 59 59 58 57 57 57 57 58 58 59 59 59 59 59 60 60 60 60 60 60 60 59 59 59 59 59 59 59 59 59 58 57 57 56 55 55 53 52 51 50 49 48 46 45 44 44 44 44 45 45 47 50 52 54 58 61 61 62 62 63 63 62 62 61 60 59 59 59 59 59 60 62 64 65 65 65 64 63 62 61 60 60 59 59 59 59 59 59 59 59 58 57 57 57 57 57 58 57 57 56 56
59 59 59 59 59 58 57 57 57 57 58 59 59 59 59 59 59 60 60 60 60 60 60 59 59 59 59 59 59 59 59 59 59 58 58 57 57 56 55 54 53 52 51 50 48 47 46 45 46 46 47 46 47 49 51 52 56 59 61 61 61 62 62 62 62 62 61 60 59 59 59 59 59 60 62 64 64 65 65 64 63 62 61 60 60 60 59 59 59 59 59 59 59 58 57 57 57 57 58 58 57 57 56
59 59 59 59 59 59 58 57 57 57 57 58 58 59 59 59 59 59 60 60 60 60 60 60 60 60 59 59 59 59 60 60 59 59 59 58 58 57 57 56 55 54 53 52 50 49 48 47 47 47 48 48 48 49 50 51 54 56 60 61 61 61 62 62 62 62 62 60 59 59 59 59 59 59 59 61 62 64 64 65 64 64 62 62 61 61 60 60 59 59 59 59 59 59 58 58 57 57 57 58 58 57 57
59 59 59 59 59 59 59 58 57 57 57 57 58 58 58 59 59 59 60 60 60 60 60 60 60 60 60 60 60 60 61 60 60 59 59 59 59 58 58 57 56 55 55 54 52 51 50 49 48 47 48 48 48 49 50 51 52 54 58 60 60 61 61 62 62 62 62 61 59 59 58 59 59 59 59 59 60 61 63 64 64 64 64 63 62 62 61 61 60 60 60 60 60 59 59 59 58 57 57 58 58 58 57
59 59 59 59 59 59 59 59 58 57 57 57 57 57 58 58 59 59 60 60 60 60 60 60 60 60 60 60 60 60 61 60 60 60 59 59 59 59 58 58 57 57 56 55 54 53 51 50 49 48 48 48 48 48 49 50 51 52 54 57 59 60 61 61 61 62 62 61 60 59 58 59 59 59 59 59 59 59 60 62 64 64 65 64 63 62 62 62 61 61 61 60 60 60 59 59 59 58 58 58 58 58 58
59 59 59 59 59 59 59 59 59 58 57 57 57 57 58 58 59 60 60 60 60 60 60 60 60 60 60 60 60 60 60 59 59 59 59 59 59 59 59 58 58 58 56 55 55 54 53 52 50 50 49 49 48 49 49 50 50 52 52 55 58 59 60 61 61 61 62 62 61 60 59 59 59 59 59 59 59 59 59 60 62 64 64 64 64 63 63 63 62 62 62 61 61 61 60 60 59 59 58 58 58 58 58
60 60 60 59 59 59 59 59 59 59 58 58 58 58 58 59 59 60 60 60 60 60 60 60 60 60 60 60 60 60 60 59 59 59 59 59 59 59 59 58 58 58 57 56 55 55 54 54 53 52 51 50 50 50 50 50 50 51 52 54 55 57 59 60 60 61 61 62 62 61 60 59 59 59 59 59 59 59 59 59 60 62 63 64 64 64 64 64 64 63 63 63 63 62 62 61 60 60 59 59 58 58 59
61 61 60 60 60 60 60 60 60 60 59 59 59 59 59 59 60 60 61 61 61 60 60 60 60 61 61 60 60 60 60 60 60 60 59 59 59 59 59 59 58 58 58 57 57 56 55 55 54 54 53 53 52 52 52 52 51 51 51 52 53 54 56 57 59 59 60 61 62 62 62 61 60 59 59 59 59 59 59 59 59 60 61 62 63 64 64 64 64 64 64 64 64 64 64 63 62 61 60 59 59 59 59
61 61 61 61 60 60 60 60 61 61 60 60 60 60 60 60 61 61 61 61 61 60 60 60 61 61 61 61 60 60 60 60 60 60 59 59 59 59 59 59 59 58 58 58 57 56 55 55 55 55 55 55 55 54 54 54 52 51 51 52 52 52 53 54 55 57 58 59 61 62 62 62 61 60 59 59 59 59 59 59 59 59 59 60 61 62 63 64 64 65 65 65 65 65 65 64 64 63 62 61 60 59 59
61 61 61 61 61 60 60 61 61 61 61 61 61 61 61 61 61 61 61 61 61 60 60 60 60 60 61 61 60 60 61 60 60 60 59 59 59 59 59 59 59 58 58 58 57 57 56 56 55 55 55 55 55 55 55 55 54 53 52 52 51 51 52 52 54 55 56 57 59 60 62 62 62 61 60 60 59 59 59 59 59 59 59 59 60 61 62 63 64 65 65 65 65 65 65 65 64 64 63 62 62 61 60
62 61 61 61 61 61 61 61 61 61 61 61 61 61 61 61 61 61 61 61 61 60 60 60 60 60 60 60 60 60 60 60 60 60 59 59 59 59 59 59 59 58 58 58 58 57 56 56 56 55 55 56 56 56 56 55 55 54 53 52 52 51 51 52 53 53 54 55 56 58 60 61 62 62 61 61 60 59 59 59 59 59 59 59 59 59 60 61 62 64 65 65 65 65 65 65 64 64 64 64 63 63 62
63 62 61 61 61 62 62 61 61 61 61 61 61 61 61 61 61 61 61 61 60 60 60 60 60 60 60 60 60 60 60 60 60 60 60 59 59 59 59 59 58 58 58 58 58 57 57 56 56 56 56 56 56 56 56 55 55 54 54 53 53 52 52 52 53 53 54 55 55 56 58 61 62 62 62 62 61 60 59 60 60 60 60 60 59 59 59 59 60 61 63 64 64 64 64 64 64 64 64 64 64 64 64
63 63 62 62 62 62 62 61 61 61 61 61 61 61 61 61 61 61 61 60 60 60 60 60 60 60 60 60 60 60 60 60 60 59 59 59 59 59 59 58 58 58 58 58 58 57 57 57 56 56 56 55 55 55 55 55 55 55 55 54 54 52 51 52 52 52 52 54 55 56 57 60 61 62 63 62 61 60 60 61 61 61 61 60 60 59 59 59 59 59 60 61 62 62 62 62 62 62 62 63 64 64 64
63 63 63 62 62 62 62 62 61 61 61 61 62 62 61 61 61 61 61 60 60 60 60 60 60 60 59 59 59 59 59 59 59 59 59 59 59 59 59 58 58 58 58 58 58 57 57 57 57 56 56 55 55 55 55 55 55 55 55 55 52 50 48 48 48 48 49 51 53 55 56 59 60 62 62 62 62 61 61 61 62 61 61 60 60 60 59 59 59 58 59 59 59 60 60 61 61 61 61 62 63 63 64
64 63 63 63 62 62 62 62 62 61 61 61 61 61 61 61 61 61 61 60 60 60 60 60 60 60 59 59 59 59 59 59 59 59 58 58 58 58 58 58 58 58 58 58 58 57 57 57 57 57 56 55 55 55 54 54 55 55 55 53 50 46 46 46 46 46 46 47 50 53 56 57 59 61 61 61 61 61 61 61 61 61 60 60 60 60 60 59 59 59 59 59 59 59 59 60 60 60 60 61 62 63 64
64 64 63 63 62 62 62 62 62 62 62 61 61 61 61 61 61 61 61 61 60 60 60 60 60 60 60 59 59 59 59 59 59 59 58 58 57 57 57 57 57 57 57 57 57 57 57 57 56 56 56 55 55 54 54 54 54 54 53 50 46 45 45 45 45 45 45 46 47 49 52 56 58 59 59 59 59 59 60 60 61 61 60 60 60 60 60 59 59 59 59 59 59 59 59 59 59 59 60 60 61 62 63
64 64 63 63 63 62 62 62 62 62 62 62 61 61 61 61 61 61 61 61 60 60 60 60 60 60 60 60 60 60 59 59 59 59 59 58 58 58 58 58 58 58 58 57 57 56 56 56 56 55 55 55 54 54 54 55 54 53 50 47 45 45 45 45 45 45 45 45 46 46 48 50 53 55 57 57 57 57 58 59 60 61 61 60 60 60 59 59 59 59 58 58 58 58 58 58 58 59 59 59 60 61 62
64 63 63 63 63 63 62 62 62 62 62 62 61 61 61 61 61 61 61 61 60 60 60 60 60 60 60 61 60 60 60 59 59 59 59 59 58 58 58 58 58 58 58 58 57 57 55 55 55 55 54 54 54 54 54 54 53 51 49 46 45 44 45 45 45 45 45 45 45 45 46 46 48 50 52 54 55 55 55 57 59 60 60 60 59 59 59 59 58 58 57 57 57 57 56 56 56 57 57 58 58 59 60
64 63 63 63 63 63 62 62 62 62 62 62 62 61 61 61 61 61 61 61 61 61 61 61 60 60 60 60 60 60 60 59 59 59 59 59 58 58 58 58 57 57 57 58 57 57 56 55 54 54 53 53 53 53 53 52 50 49 48 47 45 44 45 45 45 45 45 45 45 45 45 45 44 44 46 47 49 51 54 55 57 59 60 59 58 58 58 58 57 57 57 56 56 56 55 55 55 55 55 56 57 57 58
63 63 63 63 63 63 62 62 62 62 62 62 62 62 62 61 61 61 61 61 61 61 61 61 61 60 59 59 59 59 59 59 59 59 59 58 58 57 57 57 56 56 56 56 57 57 57 55 54 53 53 53 53 52 51 50 49 48 48 47 46 45 44 45 45 44 45 45 44 44 43 42 42 42 42 44 46 49 53 55 55 57 57 57 56 56 56 56 56 56 56 56 56 55 55 55 55 54 54 55 55 56 57
63 63 63 63 63 63 62 62 62 62 62 62 62 62 62 62 62 62 61 61 61 61 60 61 61 60 59 59 59 59 59 59 59 59 58 57 57 56 56 56 55 55 55 55 55 56 56 55 54 54 53 53 52 50 49 48 48 47 47 47 46 45 44 44 44 44 44 42 42 42 42 43 43 44 45 45 46 47 49 51 53 54 55 53 53 53 54 55 55 55 55 55 55 55 55 55 55 55 54 54 55 55 55
63 63 63 63 63 62 62 62 62 62 62 62 62 62 62 62 62 62 61 61 61 60 60 59 60 60 60 59 59 59 58 58 58 58 57 56 56 56 55 54 54 55 55 53 53 53 55 55 54 54 53 52 50 49 48 47 47 47 47 47 47 46 45 44 44 43 42 42 43 44 45 45 46 46 46 45 45 44 45 47 49 50 49 48 48 49 50 50 52 53 54 54 55 55 55 56 56 56 55 55 54 54 55
63 63 63 62 62 62 62 62 62 62 62 62 62 62 62 62 62 62 62 61 61 61 60 59 59 59 59 59 59 59 59 58 58 58 57 56 55 54 54 54 54 53 52 52 52 52 53 52 53 53 53 50 48 48 47 47 47 47 48 47 46 45 44 44 43 43 42 43 44 45 46 46 46 46 46 45 45 44 45 46 46 45 44 45 47 48 48 48 49 51 52 53 54 55 55 55 56 56 56 55 55 54 54
63 63 63 63 63 63 62 62 62 62 62 62 62 62 62 62 62 62 62 62 61 61 60 60 59 58 58 58 59 59 58 59 59 58 58 57 55 54 53 54 53 52 50 50 50 51 51 50 51 52 53 50 48 48 49 49 49 48 46 44 42 42 42 42 42 42 43 44 45 46 46 46 46 46 45 45 44 44 44 43 43 43 45 46 47 47 47 48 49 50 50 51 53 54 54 55 55 56 56 56 55 55 55
63 63 63 63 63 63 63 62 62 62 62 61 61 60 60 60 60 61 61 60 60 60 59 59 59 58 57 57 57 57 57 58 58 58 58 58 57 56 54 53 52 51 50 50 50 50 50 50 50 51 52 51 50 49 49 48 46 44 42 41 41 41 41 42 43 43 44 44 45 46 46 46 46 46 45 45 44 44 43 43 43 44 45 46 46 46 46 47 48 49 49 50 51 52 54 54 54 55 55 55 55 55 55
64 64 63 63 63 63 62 62 61 61 61 61 60 60 59 59 59 59 59 59 59 59 59 59 59 58 57 57 57 57 57 57 58 58 58 58 57 56 55 53 52 52 51 51 50 49 50 50 50 50 51 52 50 48 46 46 44 43 42 41 41 41 41 43 44 45 45 46 46 46 46 46 46 45 44 44 44 43 43 43 43 43 45 46 46 46 46 47 47 48 49 49 50 52 53 53 53 54 54 55 55 55 55
61 61 61 62 61 61 60 59 59 59 59 59 59 59 58 58 58 58 58 58 58 58 58 58 58 58 58 57 57 57 57 57 57 57 58 58 58 57 57 55 54 52 51 49 49 49 50 49 50 50 51 53 51 48 46 45 44 44 44 42 41 41 41 43 45 46 47 47 47 47 46 46 45 44 44 43 43 43 43 43 43 43 44 44 45 45 46 46 47 47 48 48 50 51 53 53 53 53 53 54 54 54 55
48 49 49 51 52 53 53 54 54 55 55 57 57 57 57 58 58 59 59 59 59 59 58 59 59 59 58 58 58 57 57 57 57 58 58 57 57 57 57 56 56 55 54 51 50 50 49 50 50 51 51 55 55 52 48 47 47 46 45 43 42 42 42 44 46 48 48 48 48 47 47 46 45 44 44 43 43 43 43 43 43 43 44 44 45 45 46 46 47 48 48 49 49 50 52 53 53 53 54 54 54 54 54
44 45 45 45 46 46 47 48 49 50 51 54 55 55 55 57 58 58 59 59 59 59 59 59 59 59 58 58 58 58 57 57 57 57 57 56 56 56 56 56 56 56 55 55 54 53 50 50 50 50 51 54 56 56 55 51 49 48 47 45 43 42 43 46 47 48 48 47 47 47 47 46 45 44 44 43 43 43 43 43 43 44 44 45 46 46 47 47 48 48 48 49 50 50 52 52 53 53 54 54 54 53 53
45 46 46 46 46 46 46 47 47 47 49 51 51 51 52 53 55 57 58 59 59 59 59 59 59 59 59 59 58 58 57 57 57 57 56 56 56 55 55 55 55 55 55 54 53 53 54 53 51 50 49 51 54 55 55 54 52 50 49 47 46 46 46 47 48 48 47 47 47 46 46 46 45 45 44 43 43 43 43 43 44 44 45 45 46 46 47 48 49 49 50 50 51 51 51 52 52 53 53 54 54 54 54
45 46 46 46 46 47 47 47 47 47 48 50 50 49 49 51 54 57 58 58 59 59 59 59 59 59 59 59 59 58 58 58 57 57 57 57 56 55 55 55 55 54 53 51 50 50 53 54 54 53 51 52 53 54 55 55 54 52 50 49 49 50 49 49 48 48 47 47 47 46 46 46 45 45 44 44 44 44 44 44 44 44 44 45 45 46 46 45 46 47 48 50 50 50 51 51 52 52 53 53 54 54 54
46 48 48 48 48 49 49 49 48 48 49 50 50 49 49 51 53 55 55 56 56 57 58 59 59 59 59 59 59 59 59 58 57 56 57 57 56 55 55 55 55 53 52 51 50 49 49 50 52 53 54 53 53 54 54 55 55 54 52 51 51 50 50 49 48 48 47 47 47 46 46 45 45 44 44 44 44 44 44 44 44 44 44 44 44 45 45 44 44 44 46 48 49 50 50 51 51 52 52 53 53 54 54